When you browse on this site, cookies collect data to enhance your experience and personalize the content and advertising you see.
Visit our Privacy Policy to learn more. By continuing to use the site, you agree to this use of cookies and data.
  • In Lithuania
  • List of Countries
  • For 7 days
  • Water Temperature
  • Satellite Maps
  • Weather Map
  • Weather Widgets
  • user-avatar
    Login

    Hourly Weather Karolin

    Today, 20 July, Saturday

    Time Temperature Precipitation Wind Pressure Humidity
    00:00 +18°C° 0 mm 2 mps 745 mmHg 65%
    01:00 +17°C° 0 mm 3 mps 745 mmHg 68%
    02:00 +17°C° 0 mm 3 mps 746 mmHg 72%
    03:00 +17°C° 0 mm 3 mps 746 mmHg 76%
    04:00 +16°C° 0 mm 2 mps 746 mmHg 80%
    05:00 +16°C° 0 mm 2 mps 746 mmHg 85%
    06:00 +17°C° 0 mm 2 mps 746 mmHg 82%
    07:00 +18°C° 0 mm 2 mps 746 mmHg 80%
    08:00 +19°C° 0 mm 2 mps 746 mmHg 77%
    09:00 +21°C° 0.4 mm 1 mps 746 mmHg 73%
    10:00 +22°C° 0.4 mm 1 mps 747 mmHg 70%
    11:00 +23°C° 0.4 mm 1 mps 747 mmHg 66%
    12:00 +24°C° 0.6 mm 2 mps 747 mmHg 62%
    13:00 +26°C° 0.6 mm 2 mps 747 mmHg 58%
    14:00 +27°C° 0.6 mm 3 mps 746 mmHg 54%
    15:00 +26°C° 0.4 mm 2 mps 746 mmHg 55%
    16:00 +26°C° 0.4 mm 2 mps 746 mmHg 56%
    17:00 +26°C° 0.4 mm 2 mps 746 mmHg 57%
    18:00 +25°C° 0.1 mm 2 mps 746 mmHg 64%
    19:00 +24°C° 0.1 mm 1 mps 746 mmHg 70%
    20:00 +22°C° 0.1 mm 1 mps 746 mmHg 77%
    21:00 +21°C° 0 mm 1 mps 746 mmHg 79%
    22:00 +20°C° 0 mm 1 mps 747 mmHg 82%
    23:00 +19°C° 0 mm 1 mps 747 mmHg 84%

    Tomorrow, 21 July, Sunday

    Time Temperature Precipitation Wind Pressure Humidity
    00:00 +19°C° 0 mm 1 mps 747 mmHg 85%
    01:00 +19°C° 0 mm 1 mps 747 mmHg 86%
    02:00 +18°C° 0 mm 1 mps 747 mmHg 88%
    03:00 +18°C° 0 mm 1 mps 747 mmHg 88%
    04:00 +18°C° 0 mm 1 mps 747 mmHg 89%
    05:00 +18°C° 0 mm 1 mps 747 mmHg 89%
    06:00 +20°C° 0 mm 1 mps 747 mmHg 84%
    07:00 +21°C° 0 mm 1 mps 747 mmHg 79%
    08:00 +23°C° 0 mm 1 mps 747 mmHg 74%
    09:00 +24°C° 0 mm 2 mps 747 mmHg 68%
    10:00 +26°C° 0 mm 2 mps 747 mmHg 62%
    11:00 +27°C° 0 mm 3 mps 747 mmHg 56%
    12:00 +28°C° 0 mm 3 mps 746 mmHg 53%
    13:00 +29°C° 0 mm 3 mps 746 mmHg 51%
    14:00 +29°C° 0 mm 3 mps 746 mmHg 48%
    15:00 +29°C° 0.4 mm 3 mps 746 mmHg 53%
    16:00 +28°C° 0.4 mm 3 mps 745 mmHg 57%
    17:00 +28°C° 0.4 mm 3 mps 745 mmHg 62%
    18:00 +26°C° 1.2 mm 3 mps 745 mmHg 70%
    19:00 +24°C° 1.2 mm 3 mps 745 mmHg 79%
    20:00 +21°C° 1.2 mm 3 mps 745 mmHg 87%
    21:00 +20°C° 1.7 mm 4 mps 745 mmHg 89%
    22:00 +20°C° 1.7 mm 5 mps 746 mmHg 92%
    23:00 +19°C° 1.7 mm 5 mps 746 mmHg 94%

    Day after tomorrow, 22 July, Monday

    Time Temperature Precipitation Wind Pressure Humidity
    00:00 +19°C° 0.3 mm 5 mps 746 mmHg 95%
    01:00 +19°C° 0.3 mm 5 mps 746 mmHg 95%
    02:00 +19°C° 0.3 mm 5 mps 746 mmHg 95%
    03:00 +17°C° 0.1 mm 5 mps 746 mmHg 95%
    04:00 +16°C° 0.1 mm 5 mps 746 mmHg 94%
    05:00 +16°C° 0.1 mm 5 mps 746 mmHg 93%
    06:00 +16°C° 0 mm 5 mps 746 mmHg 91%
    07:00 +17°C° 0 mm 5 mps 747 mmHg 88%
    08:00 +17°C° 0 mm 5 mps 747 mmHg 85%
    09:00 +17°C° 0 mm 5 mps 747 mmHg 84%
    10:00 +17°C° 0 mm 5 mps 747 mmHg 83%
    11:00 +19°C° 0 mm 6 mps 748 mmHg 82%
    12:00 +19°C° 0.1 mm 6 mps 748 mmHg 78%
    13:00 +20°C° 0.1 mm 6 mps 748 mmHg 74%
    14:00 +21°C° 0.1 mm 7 mps 748 mmHg 70%
    15:00 +21°C° 0 mm 7 mps 748 mmHg 68%
    16:00 +21°C° 0 mm 7 mps 748 mmHg 66%
    17:00 +21°C° 0 mm 7 mps 748 mmHg 64%
    18:00 +20°C° 0 mm 6 mps 748 mmHg 67%
    19:00 +19°C° 0 mm 5 mps 748 mmHg 71%
    20:00 +18°C° 0 mm 4 mps 748 mmHg 75%
    21:00 +17°C° 0 mm 4 mps 748 mmHg 76%
    22:00 +15°C° 0 mm 4 mps 748 mmHg 78%
    23:00 +14°C° 0 mm 4 mps 748 mmHg 80%

    23 July, Tuesday

    Time Temperature Precipitation Wind Pressure Humidity
    00:00 +13°C° 0 mm 4 mps 748 mmHg 84%
    01:00 +13°C° 0 mm 4 mps 748 mmHg 88%
    02:00 +12°C° 0 mm 4 mps 748 mmHg 91%
    03:00 +12°C° 0 mm 4 mps 748 mmHg 93%
    04:00 +12°C° 0 mm 4 mps 748 mmHg 94%
    05:00 +12°C° 0 mm 5 mps 747 mmHg 95%
    06:00 +13°C° 0 mm 5 mps 747 mmHg 91%
    07:00 +14°C° 0 mm 6 mps 747 mmHg 88%
    08:00 +15°C° 0 mm 6 mps 747 mmHg 84%
    09:00 +17°C° 0 mm 6 mps 747 mmHg 79%
    10:00 +19°C° 0 mm 6 mps 747 mmHg 74%
    11:00 +21°C° 0 mm 6 mps 747 mmHg 68%
    12:00 +21°C° 0.2 mm 5 mps 747 mmHg 71%
    13:00 +20°C° 0.2 mm 5 mps 747 mmHg 74%
    14:00 +20°C° 0.2 mm 4 mps 747 mmHg 76%
    15:00 +20°C° 0 mm 4 mps 747 mmHg 76%
    16:00 +21°C° 0 mm 4 mps 747 mmHg 75%
    17:00 +21°C° 0 mm 3 mps 747 mmHg 74%
    18:00 +21°C° 0 mm 3 mps 747 mmHg 76%
    19:00 +20°C° 0 mm 3 mps 747 mmHg 78%
    20:00 +20°C° 0 mm 3 mps 747 mmHg 80%
    21:00 +19°C° 0 mm 3 mps 747 mmHg 83%
    22:00 +18°C° 0 mm 3 mps 748 mmHg 87%
    23:00 +17°C° 0 mm 4 mps 748 mmHg 91%

    24 July, Wednesday

    Time Temperature Precipitation Wind Pressure Humidity
    00:00 +16°C° 0 mm 3 mps 748 mmHg 92%
    01:00 +16°C° 0 mm 3 mps 748 mmHg 93%
    02:00 +14°C° 0 mm 3 mps 748 mmHg 95%
    03:00 +14°C° 0 mm 3 mps 748 mmHg 96%
    04:00 +13°C° 0 mm 3 mps 748 mmHg 96%
    05:00 +13°C° 0 mm 3 mps 748 mmHg 97%
    06:00 +16°C° 0 mm 3 mps 748 mmHg 91%
    07:00 +17°C° 0 mm 3 mps 748 mmHg 85%
    08:00 +19°C° 0 mm 3 mps 748 mmHg 80%
    09:00 +21°C° 0 mm 3 mps 749 mmHg 73%
    10:00 +22°C° 0 mm 3 mps 749 mmHg 66%
    11:00 +25°C° 0 mm 4 mps 749 mmHg 59%
    12:00 +26°C° 0 mm 3 mps 749 mmHg 57%
    13:00 +26°C° 0 mm 3 mps 749 mmHg 54%
    14:00 +27°C° 0 mm 3 mps 749 mmHg 52%
    15:00 +27°C° 0.1 mm 3 mps 749 mmHg 54%
    16:00 +26°C° 0.1 mm 3 mps 748 mmHg 57%
    17:00 +26°C° 0.1 mm 3 mps 748 mmHg 59%
    18:00 +25°C° 0.1 mm 3 mps 748 mmHg 66%
    19:00 +22°C° 0.1 mm 3 mps 748 mmHg 73%
    20:00 +21°C° 0.1 mm 2 mps 749 mmHg 80%
    21:00 +20°C° 0 mm 2 mps 749 mmHg 82%
    22:00 +19°C° 0 mm 2 mps 749 mmHg 85%
    23:00 +18°C° 0 mm 2 mps 749 mmHg 87%

    25 July, Thursday

    Time Temperature Precipitation Wind Pressure Humidity
    00:00 +18°C° 0 mm 2 mps 749 mmHg 89%
    01:00 +17°C° 0 mm 2 mps 749 mmHg 90%
    02:00 +17°C° 0 mm 2 mps 749 mmHg 91%
    03:00 +16°C° 0 mm 2 mps 749 mmHg 92%
    04:00 +16°C° 0 mm 2 mps 749 mmHg 93%
    05:00 +16°C° 0 mm 2 mps 749 mmHg 94%
    06:00 +18°C° 0 mm 2 mps 750 mmHg 88%
    07:00 +19°C° 0 mm 2 mps 750 mmHg 82%
    08:00 +21°C° 0 mm 2 mps 750 mmHg 77%
    09:00 +23°C° 0 mm 2 mps 750 mmHg 70%
    10:00 +25°C° 0 mm 3 mps 750 mmHg 63%
    11:00 +26°C° 0 mm 3 mps 751 mmHg 56%
    12:00 +27°C° 0 mm 2 mps 751 mmHg 53%
    13:00 +27°C° 0 mm 2 mps 750 mmHg 51%
    14:00 +27°C° 0 mm 2 mps 750 mmHg 49%
    15:00 +27°C° 0 mm 3 mps 750 mmHg 49%
    16:00 +27°C° 0 mm 3 mps 750 mmHg 48%
    17:00 +27°C° 0 mm 3 mps 750 mmHg 48%
    18:00 +26°C° 0 mm 3 mps 750 mmHg 54%
    19:00 +24°C° 0 mm 2 mps 750 mmHg 59%
    20:00 +23°C° 0 mm 2 mps 750 mmHg 64%
    21:00 +22°C° 0 mm 1 mps 750 mmHg 66%
    22:00 +21°C° 0 mm 1 mps 750 mmHg 67%
    23:00 +20°C° 0 mm 1 mps 750 mmHg 69%
    Show more